CubeBel-2 (EU11S)
1 57175U 23091K   26182.57855063  .00016738  00000-0  58604-3 0  9999
2 57175  97.5044 245.9264 0010774  70.7525 289.4880 15.29517849166501
RS-38S
1 57189U 23091Z   26182.60782396  .00020186  00000-0  56812-3 0  9997
2 57189  97.5087 252.3856 0007014  31.3952 328.7709 15.36484047166904
SONATE-2
1 59112U 24043Q   26181.87231082  .00046267  00000-0  57664-3 0  9996
2 59112  97.5541 333.1180 0007194 151.0816 209.0840 15.59751983130025
GRBBeta
1 60237U 24128C   26182.48884565  .00003899  00000-0  27107-3 0  9991
2 60237  61.9883 166.0851 0038812 137.7509 222.6586 15.06725243108427
Curium One
1 60242U 24128H   26182.44921686  .00009327  00000-0  53305-3 0  9990
2 60242  61.9772 155.2537 0037997 133.7865 226.6385 15.12690475108612
ROBUSTA-3A
1 60243U 24128J   26182.62046117  .00007207  00000-0  42455-3 0  9997
2 60243  61.9851 157.1970 0039714 130.9171 229.5375 15.11819152108605
CatSat
1 60246U 24125J   26182.51299376  .00078343  00000-0  93632-3 0  9994
2 60246  97.2067  35.2158 0021987 130.3412 229.9770 15.60457923109622
HYPERVIEW-1G (RS66S)
1 61772U 24199AP  26182.52265967  .00194864  00000-0  10239-2 0  9998
2 61772  97.2835  63.0072 0006999 175.3754 184.7580 15.80168306136935
AO-123
1 61781U 24199AY  26182.62966249  .00008718  00000-0  25141-3 0  9991
2 61781  97.2978  51.1707 0011956 254.4084 105.5840 15.35879718136149
JINJUSat 1B
1 63210U 25052A   26182.23856486  .00022431  00000-0  68403-3 0  9993
2 63210  97.3992  79.0154 0004770  61.3114 298.8607 15.33946356 72254
NUSHSAT 1
1 63211U 25052B   26182.25921584  .00028645  00000-0  80350-3 0  9996
2 63211  97.3965  79.6512 0004519  66.8891 293.2829 15.36529174 72301
TEVEL2-4
1 63213U 25052D   26182.65552543  .00022944  00000-0  67406-3 0  9990
2 63213  97.3888  79.0745 0004653  76.7769 283.3993 15.35122895 72335
TEVEL2-5
1 63214U 25052E   26181.24344693  .00016701  00000-0  49542-3 0  9995
2 63214  97.3890  77.6036 0004702  80.7172 279.4603 15.34882414 72113
TEVEL2-6
1 63215U 25052F   26182.23399102  .00024838  00000-0  73468-3 0  9995
2 63215  97.3895  78.5803 0004462  79.5368 280.6378 15.34892606 72260
TEVEL2-1
1 63217U 25052H   26182.65927922  .00021922  00000-0  66005-3 0  9990
2 63217  97.3861  78.6135 0004959  86.0738 274.1071 15.34353658 72312
TEVEL2-3
1 63218U 25052J   26182.32730917  .00024724  00000-0  74270-3 0  9997
2 63218  97.3865  78.3051 0004785  88.1642 272.0149 15.34403112 72263
TEVEL2-2
1 63219U 25052K   26182.65950123  .00021924  00000-0  65990-3 0  9995
2 63219  97.3863  78.6161 0004976  87.0260 273.1553 15.34364033 72318
TEVEL2-9
1 63237U 25052AD  26182.26397641  .00022932  00000-0  73495-3 0  9991
2 63237  97.3927  77.5652 0008265  93.8568 266.3619 15.32333335 72184
TEVEL2-7
1 63238U 25052AE  26182.63421137  .00019376  00000-0  62738-3 0  9997
2 63238  97.3926  77.8444 0008410  92.9633 267.2571 15.32037018 72233
TEVEL2-8
1 63239U 25052AF  26182.25070963  .00022297  00000-0  72189-3 0  9990
2 63239  97.3927  77.4382 0008433  94.5817 265.6388 15.32010872 72179
SPIRONE
1 66657U 25274H   26181.38598585  .00001805  00000-0  17630-3 0  9993
2 66657  97.7480 110.4890 0011447 337.8599  22.2125 14.93598525 32191
K-HERO
1 66660U 25274L   26182.25758456  .00002174  00000-0  20894-3 0  9995
2 66660  97.7486 111.5195 0013298 338.1583  21.9068 14.94015689 32338
SNUGLITE-III DURI
1 66661U 25274M   26182.24501104  .00001790  00000-0  17283-3 0  9992
2 66661  97.7481 111.5277 0013999 339.2717  20.7934 14.94052376 32337
SAKHACUBE-CHOLBON
1 67290U 25313AU  26182.07081015  .00011263  00000-0  45180-3 0  9993
2 67290  97.3936 256.9337 0007759 311.3566  48.7004 15.25132506 28093
RS95S (QMR-KWT-2)
1 67291U 25313AV  26182.43912267  .00018634  00000-0  71168-3 0  9990
2 67291  97.3927 257.5032 0007334 305.8443  54.2114 15.26657866 28168
Ten-Koh2
1 68261U 25241B   26182.44241610  .00006263  00000-0  26812-3 0  9997
2 68261  51.6662 251.7824 0005079 184.6564 175.4368 15.24050515 17083
JACK-002
1 68417U 26067B   26182.32011996  .00008257  00000-0  39127-3 0  9994
2 68417  97.4573 140.7375 0001577 158.8831 201.2469 15.19567081 14095
DISCO 2
1 68431U 26067R   26182.14649402  .00009498  00000-0  45319-3 0  9997
2 68431  97.4610 140.5549 0001190  20.5488 339.5794 15.19282896 14069
HADES-SA (SpinnyONE)
1 68446U 26067AG  26181.13101925  .00017941  00000-0  84624-3 0  9998
2 68446  97.4405 139.2366 0008358  49.2634 310.9325 15.19498904 13895
PARUS-6U1
1 68456U 26067AS  26182.43063457  .00007721  00000-0  38640-3 0  9992
2 68456  97.4561 140.5764 0006354  33.4199 326.7435 15.17668479 14095
SAL-E
1 68458U 26067AU  26182.15990620  .00010595  00000-0  52431-3 0  9991
2 68458  97.4487 140.2377 0006940  42.1451 318.0316 15.17960282 14055
FSI-SAT 2
1 68792U 26088A   26182.16415458  .00005907  00000-0  39805-3 0  9998
2 68792  97.5082 331.0733 0015426  62.8942 297.3858 15.06946308 10391
OrigamiSat 2
1 68795U 26088D   26182.15486194  .00016874  00000-0  10653-2 0  9999
2 68795  97.5090 331.2433 0015292  35.6085 324.6162 15.09050615 10403
ARICA 2
1 68796U 26088E   26182.29052968  .00005692  00000-0  36745-3 0  9990
2 68796  97.5080 331.3555 0016272  34.9428 325.2865 15.08540658 10420
WASEDA-SAT-ZERO-II
1 68797U 26088F   26182.15140238  .00006776  00000-0  43359-3 0  9997
2 68797  97.5079 331.2331 0016055  35.2829 324.9459 15.08797622 10406
MANGARO-II-Piscus
1 68798U 26088G   26182.47235696  .00004083  00000-0  26191-3 0  9990
2 68798  97.5089 331.5801 0019820  36.7250 323.5333 15.08887111 10454
IO-86
1 40931U          25360.30710720  .00000000  00000-0  12800-3 0    00
2 40931   6.0006 332.5373 0012733 338.8432   8.1437 14.79075515    01
LILIUM-4                
1 71922C 26067AC  26089.50133053 -.00014632  00000+0 -74472-3 0    04
2 71922  97.4497  49.1617 0004341   5.9603 355.7042 15.16896692    16
